Time,TemperatureF,DewpointF,PressureIn,WindDirection,WindDirectionDegrees,WindSpeedMPH,WindSpeedGustMPH,Humidity,HourlyPrecipIn,Conditions,Clouds,dailyrainin,SolarRadiationWatts/m^2,SoftwareType,DateUTC
2013-04-16 00:00:00,70.1,63.7,30.09,NE,43,2.0,6.0,80,0.00,,CLR,0.00,0.00,VWS V14.01,2013-04-16 04:00:00,
2013-04-16 00:05:00,70.0,63.9,30.09,NE,55,1.0,5.0,81,0.00,,CLR,0.00,0.00,VWS V14.01,2013-04-16 04:05:00,
2013-04-16 00:10:00,69.8,64.1,30.08,NE,37,2.0,5.0,82,0.00,,CLR,0.00,0.00,VWS V14.01,2013-04-16 04:10:00,
2013-04-16 00:15:00,69.6,64.2,30.08,NE,34,1.0,5.0,83,0.00,,CLR,0.00,0.00,VWS V14.01,2013-04-16 04:15:00,
2013-04-16 00:20:00,69.4,64.0,30.08,NNE,17,1.0,5.0,83,0.00,,CLR,0.00,0.00,VWS V14.01,2013-04-16 04:20:00,
2013-04-16 00:25:00,69.3,64.3,30.08,NE,42,4.0,5.0,84,0.00,,CLR,0.00,0.00,VWS V14.01,2013-04-16 04:25:00,
2013-04-16 00:31:00,69.2,64.5,30.08,NE,38,4.0,6.0,85,0.00,,CLR,0.00,0.00,VWS V14.01,2013-04-16 04:31:00,
2013-04-16 00:35:00,69.0,64.6,30.08,ENE,71,3.0,4.0,86,0.00,,CLR,0.00,0.00,VWS V14.01,2013-04-16 04:35:00,
2013-04-16 00:40:00,68.9,64.6,30.08,NE,39,2.0,4.0,86,0.00,,CLR,0.00,0.00,VWS V14.01,2013-04-16 04:40:00,
2013-04-16 00:45:00,68.7,64.7,30.09,NE,52,3.0,5.0,87,0.00,,CLR,0.00,0.00,VWS V14.01,2013-04-16 04:45:00,
2013-04-16 00:50:00,68.5,64.5,30.09,NNE,30,4.0,6.0,87,0.00,,CLR,0.00,0.00,VWS V14.01,2013-04-16 04:50:00,
2013-04-16 00:56:00,68.5,64.5,30.08,NE,53,3.0,9.0,87,0.00,,CLR,0.00,0.00,VWS V14.01,2013-04-16 04:56:00,
2013-04-16 01:01:00,68.3,64.6,30.08,NE,36,4.0,9.0,88,0.00,,CLR,0.00,0.00,VWS V14.01,2013-04-16 05:01:00,
2013-04-16 01:06:00,68.3,64.9,30.08,NNE,23,6.0,7.0,89,0.00,,CLR,0.00,0.00,VWS V14.01,2013-04-16 05:06:00,
2013-04-16 01:11:00,68.1,64.7,30.08,NE,42,5.0,10.0,89,0.00,,CLR,0.00,0.00,VWS V14.01,2013-04-16 05:11:00,
2013-04-16 01:16:00,68.0,65.0,30.08,NE,45,5.0,10.0,90,0.00,,CLR,0.00,0.00,VWS V14.01,2013-04-16 05:16:00,
2013-04-16 01:21:00,67.9,65.2,30.08,NE,53,4.0,10.0,91,0.00,,CLR,0.00,0.00,VWS V14.01,2013-04-16 05:21:00,
2013-04-16 01:26:00,67.8,65.1,30.08,NNE,30,2.0,10.0,91,0.00,,CLR,0.00,0.00,VWS V14.01,2013-04-16 05:26:00,
2013-04-16 01:31:00,67.6,64.9,30.08,NE,48,4.0,10.0,91,0.00,,CLR,0.00,0.00,VWS V14.01,2013-04-16 05:31:00,
2013-04-16 01:36:00,67.4,65.0,30.08,NE,43,5.0,6.0,92,0.00,,CLR,0.00,0.00,VWS V14.01,2013-04-16 05:36:00,
2013-04-16 01:41:00,67.3,64.9,30.08,NNE,26,6.0,8.0,92,0.00,,CLR,0.00,0.00,VWS V14.01,2013-04-16 05:41:00,
2013-04-16 01:46:00,67.3,64.9,30.08,NNE,30,3.0,8.0,92,0.00,,CLR,0.00,0.00,VWS V14.01,2013-04-16 05:46:00,
2013-04-16 01:51:00,67.2,65.1,30.08,NE,45,4.0,8.0,93,0.00,,CLR,0.00,0.00,VWS V14.01,2013-04-16 05:51:00,
2013-04-16 01:56:00,67.0,64.9,30.08,NE,40,4.0,9.0,93,0.00,,CLR,0.00,0.00,VWS V14.01,2013-04-16 05:56:00,
2013-04-16 02:01:00,66.9,64.8,30.08,NNE,25,3.0,4.0,93,0.00,,CLR,0.00,0.00,VWS V14.01,2013-04-16 06:01:00,
2013-04-16 02:06:00,66.8,64.7,30.07,NNE,32,3.0,6.0,93,0.00,,CLR,0.00,0.00,VWS V14.01,2013-04-16 06:06:00,
2013-04-16 02:11:00,66.7,64.6,30.07,NE,35,3.0,9.0,93,0.00,,CLR,0.00,0.00,VWS V14.01,2013-04-16 06:11:00,
2013-04-16 02:16:00,66.6,64.5,30.07,North,9,4.0,9.0,93,0.00,,CLR,0.00,0.00,VWS V14.01,2013-04-16 06:16:00,
2013-04-16 02:22:00,66.6,64.5,30.07,NNE,25,5.0,9.0,93,0.00,,CLR,0.00,0.00,VWS V14.01,2013-04-16 06:22:00,
2013-04-16 02:27:00,66.5,64.4,30.07,NNE,17,3.0,9.0,93,0.00,,CLR,0.00,0.00,VWS V14.01,2013-04-16 06:27:00,
2013-04-16 02:32:00,66.5,64.4,30.07,NE,40,4.0,5.0,93,0.00,,CLR,0.00,0.00,VWS V14.01,2013-04-16 06:32:00,
2013-04-16 02:37:00,66.5,64.4,30.07,NE,37,2.0,7.0,93,0.00,,CLR,0.00,0.00,VWS V14.01,2013-04-16 06:37:00,
2013-04-16 02:42:00,66.5,64.4,30.06,NE,54,5.0,7.0,93,0.00,,CLR,0.00,0.00,VWS V14.01,2013-04-16 06:42:00,
2013-04-16 02:47:00,66.4,64.3,30.07,NNE,21,3.0,7.0,93,0.00,,CLR,0.00,0.00,VWS V14.01,2013-04-16 06:47:00,
2013-04-16 02:52:00,66.4,64.3,30.06,NNE,29,3.0,7.0,93,0.00,,CLR,0.00,0.00,VWS V14.01,2013-04-16 06:52:00,
2013-04-16 02:57:00,66.4,64.6,30.06,NNE,14,4.0,7.0,94,0.00,,CLR,0.00,0.00,VWS V14.01,2013-04-16 06:57:00,
2013-04-16 03:02:00,66.3,64.5,30.06,NE,35,3.0,4.0,94,0.00,,CLR,0.00,0.00,VWS V14.01,2013-04-16 07:02:00,
2013-04-16 03:07:00,66.3,64.5,30.06,NNE,26,2.0,5.0,94,0.00,,CLR,0.00,0.00,VWS V14.01,2013-04-16 07:07:00,
2013-04-16 03:12:00,66.3,64.5,30.06,NNE,32,3.0,6.0,94,0.00,,CLR,0.00,0.00,VWS V14.01,2013-04-16 07:12:00,
2013-04-16 03:17:00,66.3,64.5,30.06,ENE,67,4.0,6.0,94,0.00,,CLR,0.00,0.00,VWS V14.01,2013-04-16 07:17:00,
2013-04-16 03:22:00,66.2,64.4,30.06,NE,40,4.0,7.0,94,0.00,,CLR,0.00,0.00,VWS V14.01,2013-04-16 07:22:00,
2013-04-16 03:27:00,66.2,64.4,30.06,NE,38,4.0,7.0,94,0.00,,CLR,0.00,0.00,VWS V14.01,2013-04-16 07:27:00,
2013-04-16 03:32:00,66.2,64.7,30.05,NNE,27,4.0,6.0,95,0.00,,CLR,0.00,0.00,VWS V14.01,2013-04-16 07:32:00,
2013-04-16 03:37:00,66.1,64.6,30.05,NNE,27,4.0,6.0,95,0.00,,CLR,0.00,0.00,VWS V14.01,2013-04-16 07:37:00,
2013-04-16 03:42:00,66.1,64.6,30.06,East,80,5.0,6.0,95,0.00,,CLR,0.00,0.00,VWS V14.01,2013-04-16 07:42:00,
2013-04-16 03:47:00,66.1,64.6,30.06,NNE,33,4.0,6.0,95,0.00,,CLR,0.00,0.00,VWS V14.01,2013-04-16 07:47:00,
2013-04-16 03:52:00,66.0,64.5,30.05,NNE,33,4.0,6.0,95,0.00,,CLR,0.00,0.00,VWS V14.01,2013-04-16 07:52:00,
2013-04-16 03:57:00,66.0,64.5,30.05,North,9,3.0,6.0,95,0.00,,CLR,0.00,0.00,VWS V14.01,2013-04-16 07:57:00,
2013-04-16 04:02:00,65.9,64.4,30.06,NNE,16,2.0,4.0,95,0.00,,CLR,0.00,0.00,VWS V14.01,2013-04-16 08:02:00,
2013-04-16 04:07:00,65.9,64.4,30.05,North,5,3.0,5.0,95,0.00,,CLR,0.00,0.00,VWS V14.01,2013-04-16 08:07:00,
2013-04-16 04:12:00,65.9,64.4,30.06,NNE,20,4.0,5.0,95,0.00,,CLR,0.00,0.00,VWS V14.01,2013-04-16 08:12:00,
2013-04-16 04:17:00,65.9,64.4,30.05,NNE,22,2.0,5.0,95,0.00,,CLR,0.00,0.00,VWS V14.01,2013-04-16 08:17:00,
2013-04-16 04:22:00,65.9,64.4,30.05,NNE,13,4.0,5.0,95,0.00,,CLR,0.00,0.00,VWS V14.01,2013-04-16 08:22:00,
2013-04-16 04:27:00,65.8,64.3,30.05,NE,48,3.0,6.0,95,0.00,,CLR,0.00,0.00,VWS V14.01,2013-04-16 08:27:00,
2013-04-16 04:32:00,65.8,64.6,30.05,NE,40,4.0,4.0,96,0.00,,CLR,0.00,0.00,VWS V14.01,2013-04-16 08:32:00,
2013-04-16 04:37:00,65.8,64.6,30.06,NE,42,1.0,7.0,96,0.00,,CLR,0.00,0.00,VWS V14.01,2013-04-16 08:37:00,
2013-04-16 04:42:00,65.7,64.5,30.05,NNE,23,3.0,7.0,96,0.00,,CLR,0.00,0.00,VWS V14.01,2013-04-16 08:42:00,
2013-04-16 04:47:00,65.7,64.5,30.06,NNE,26,4.0,7.0,96,0.00,,CLR,0.00,0.00,VWS V14.01,2013-04-16 08:47:00,
2013-04-16 04:52:00,65.8,64.6,30.06,NE,55,2.0,7.0,96,0.00,,CLR,0.00,0.00,VWS V14.01,2013-04-16 08:52:00,
2013-04-16 04:57:00,65.8,64.6,30.06,NNE,20,4.0,9.0,96,0.00,,CLR,0.00,0.00,VWS V14.01,2013-04-16 08:57:00,
2013-04-16 05:02:00,65.8,64.6,30.06,NNE,26,0.0,3.0,96,0.00,,CLR,0.00,0.00,VWS V14.01,2013-04-16 09:02:00,
2013-04-16 05:08:00,65.8,64.6,30.06,NNE,20,1.0,5.0,96,0.00,,CLR,0.00,0.00,VWS V14.01,2013-04-16 09:08:00,
2013-04-16 05:13:00,65.8,64.6,30.06,NE,34,2.0,8.0,96,0.00,,CLR,0.00,0.00,VWS V14.01,2013-04-16 09:13:00,
2013-04-16 05:18:00,65.8,64.6,30.06,NE,34,3.0,8.0,96,0.00,,CLR,0.00,0.00,VWS V14.01,2013-04-16 09:18:00,
2013-04-16 05:23:00,65.8,64.6,30.06,NNE,29,4.0,8.0,96,0.00,,CLR,0.00,0.00,VWS V14.01,2013-04-16 09:23:00,
2013-04-16 05:28:00,65.8,64.6,30.06,NE,39,4.0,8.0,96,0.00,,CLR,0.00,0.00,VWS V14.01,2013-04-16 09:28:00,
2013-04-16 05:33:00,65.8,64.6,30.06,NNE,29,2.0,6.0,96,0.00,,CLR,0.00,0.00,VWS V14.01,2013-04-16 09:33:00,
2013-04-16 05:38:00,65.8,64.6,30.07,NE,49,1.0,6.0,96,0.00,,CLR,0.00,0.00,VWS V14.01,2013-04-16 09:38:00,
2013-04-16 05:43:00,65.8,64.6,30.07,NE,44,4.0,6.0,96,0.00,,CLR,0.00,0.00,VWS V14.01,2013-04-16 09:43:00,
2013-04-16 05:48:00,65.7,64.5,30.07,ENE,74,4.0,6.0,96,0.00,,CLR,0.00,0.00,VWS V14.01,2013-04-16 09:48:00,
2013-04-16 05:53:00,65.8,64.6,30.07,ENE,66,2.0,6.0,96,0.00,,CLR,0.00,0.00,VWS V14.01,2013-04-16 09:53:00,
2013-04-16 05:58:00,65.8,64.6,30.07,ENE,74,4.0,6.0,96,0.00,,CLR,0.00,0.00,VWS V14.01,2013-04-16 09:58:00,
2013-04-16 06:03:00,65.9,64.7,30.07,East,80,2.0,3.0,96,0.00,,CLR,0.00,0.00,VWS V14.01,2013-04-16 10:03:00,
2013-04-16 06:08:00,66.1,64.9,30.07,ENE,65,3.0,7.0,96,0.00,,CLR,0.00,0.00,VWS V14.01,2013-04-16 10:08:00,
2013-04-16 06:13:00,66.1,64.9,30.07,ENE,67,2.0,7.0,96,0.00,,CLR,0.00,0.00,VWS V14.01,2013-04-16 10:13:00,
2013-04-16 06:18:00,66.2,65.0,30.07,East,84,5.0,8.0,96,0.00,,CLR,0.00,0.00,VWS V14.01,2013-04-16 10:18:00,
2013-04-16 06:23:00,66.2,65.0,30.08,ENE,69,2.0,8.0,96,0.00,,CLR,0.00,0.00,VWS V14.01,2013-04-16 10:23:00,
2013-04-16 06:28:00,66.3,65.1,30.08,NE,41,1.0,8.0,96,0.00,,CLR,0.00,0.00,VWS V14.01,2013-04-16 10:28:00,
2013-04-16 06:33:00,66.5,65.6,30.08,NNE,15,3.0,5.0,97,0.00,,CLR,0.00,0.00,VWS V14.01,2013-04-16 10:33:00,
2013-04-16 06:38:00,66.5,65.6,30.08,NE,42,2.0,5.0,97,0.00,,CLR,0.00,0.00,VWS V14.01,2013-04-16 10:38:00,
2013-04-16 06:43:00,66.5,65.6,30.08,NE,38,4.0,7.0,97,0.00,,CLR,0.00,0.00,VWS V14.01,2013-04-16 10:43:00,
2013-04-16 06:48:00,66.5,65.6,30.09,NE,44,2.0,7.0,97,0.00,,CLR,0.00,0.00,VWS V14.01,2013-04-16 10:48:00,
2013-04-16 06:53:00,66.4,65.5,30.09,NE,55,2.0,7.0,97,0.00,,CLR,0.00,0.00,VWS V14.01,2013-04-16 10:53:00,
2013-04-16 06:58:00,66.4,65.5,30.09,ENE,63,4.0,7.0,97,0.00,,CLR,0.00,0.00,VWS V14.01,2013-04-16 10:58:00,
2013-04-16 07:03:00,66.4,65.5,30.10,ENE,59,2.0,5.0,97,0.00,,,0.00,0.00,VWS V14.01,2013-04-16 11:03:00,
2013-04-16 07:08:00,66.5,65.6,30.10,NE,55,2.0,5.0,97,0.00,,,0.00,7.00,VWS V14.01,2013-04-16 11:08:00,
2013-04-16 07:13:00,66.5,65.6,30.10,NE,36,4.0,5.0,97,0.00,,,0.00,11.00,VWS V14.01,2013-04-16 11:13:00,
2013-04-16 07:18:00,66.5,65.6,30.10,NE,51,4.0,6.0,97,0.00,,,0.00,12.00,VWS V14.01,2013-04-16 11:18:00,
2013-04-16 07:23:00,66.5,65.6,30.11,ENE,74,5.0,7.0,97,0.00,,,0.00,16.00,VWS V14.01,2013-04-16 11:23:00,
2013-04-16 07:28:00,66.5,65.6,30.11,NE,42,6.0,7.0,97,0.00,,,0.00,19.00,VWS V14.01,2013-04-16 11:28:00,
2013-04-16 07:33:00,66.5,65.6,30.11,NE,38,3.0,5.0,97,0.00,,,0.00,21.00,VWS V14.01,2013-04-16 11:33:00,
2013-04-16 07:38:00,66.6,65.7,30.11,East,82,5.0,8.0,97,0.00,,,0.00,28.00,VWS V14.01,2013-04-16 11:38:00,
2013-04-16 07:43:00,66.6,65.7,30.11,East,80,6.0,8.0,97,0.00,,,0.00,35.00,VWS V14.01,2013-04-16 11:43:00,
2013-04-16 07:48:00,66.6,65.7,30.11,ENE,74,8.0,10.0,97,0.00,,,0.00,44.00,VWS V14.01,2013-04-16 11:48:00,
2013-04-16 07:53:00,66.6,65.7,30.11,ENE,59,4.0,10.0,97,0.00,,,0.00,46.00,VWS V14.01,2013-04-16 11:53:00,
2013-04-16 07:58:00,66.7,65.8,30.12,East,79,7.0,10.0,97,0.00,,,0.00,49.00,VWS V14.01,2013-04-16 11:58:00,
2013-04-16 08:03:00,66.7,65.8,30.12,East,79,6.0,9.0,97,0.00,,,0.00,58.00,VWS V14.01,2013-04-16 12:03:00,
2013-04-16 08:08:00,66.8,65.9,30.12,East,81,8.0,12.0,97,0.00,,,0.00,72.00,VWS V14.01,2013-04-16 12:08:00,
2013-04-16 08:13:00,66.8,65.9,30.12,NE,54,3.0,12.0,97,0.00,,,0.00,81.00,VWS V14.01,2013-04-16 12:13:00,
2013-04-16 08:18:00,66.9,66.0,30.12,ENE,67,4.0,12.0,97,0.00,,,0.00,81.00,VWS V14.01,2013-04-16 12:18:00,
2013-04-16 08:23:00,66.9,66.0,30.12,East,89,6.0,12.0,97,0.00,,,0.00,90.00,VWS V14.01,2013-04-16 12:23:00,
2013-04-16 08:28:00,67.1,66.2,30.12,NE,46,7.0,12.0,97,0.00,,,0.00,104.00,VWS V14.01,2013-04-16 12:28:00,
2013-04-16 08:33:00,67.1,66.2,30.12,NE,40,6.0,7.0,97,0.00,,,0.00,121.00,VWS V14.01,2013-04-16 12:33:00,
2013-04-16 08:38:00,67.3,66.4,30.13,ENE,60,3.0,8.0,97,0.00,,,0.00,121.00,VWS V14.01,2013-04-16 12:38:00,
2013-04-16 08:43:00,67.6,66.7,30.13,ENE,67,3.0,8.0,97,0.00,,,0.00,134.00,VWS V14.01,2013-04-16 12:43:00,
2013-04-16 08:48:00,67.8,66.9,30.13,ENE,75,4.0,8.0,97,0.00,,,0.00,148.00,VWS V14.01,2013-04-16 12:48:00,
2013-04-16 08:53:00,68.1,67.2,30.13,NE,34,7.0,9.0,97,0.00,,,0.00,176.00,VWS V14.01,2013-04-16 12:53:00,
2013-04-16 08:58:00,68.4,67.5,30.13,East,91,2.0,10.0,97,0.00,,,0.00,190.00,VWS V14.01,2013-04-16 12:58:00,
2013-04-16 09:03:00,68.8,67.9,30.14,East,85,6.0,7.0,97,0.00,,,0.00,237.00,VWS V14.01,2013-04-16 13:03:00,
2013-04-16 09:08:00,69.1,68.2,30.14,ENE,71,4.0,10.0,97,0.00,,,0.00,288.00,VWS V14.01,2013-04-16 13:08:00,
2013-04-16 09:13:00,69.6,68.4,30.14,East,83,3.0,10.0,96,0.00,,,0.00,301.00,VWS V14.01,2013-04-16 13:13:00,
2013-04-16 09:18:00,70.2,68.7,30.14,East,86,7.0,10.0,95,0.00,,SCT006,0.00,394.00,VWS V14.01,2013-04-16 13:18:00,
2013-04-16 09:23:00,71.0,69.5,30.14,NE,51,4.0,10.0,95,0.00,,SCT006,0.00,533.00,VWS V14.01,2013-04-16 13:23:00,
2013-04-16 09:28:00,71.7,69.6,30.14,NE,39,3.0,10.0,93,0.00,,SCT006,0.00,279.00,VWS V14.01,2013-04-16 13:28:00,
2013-04-16 09:33:00,71.7,68.9,30.14,NE,38,3.0,8.0,91,0.00,,SCT006,0.00,318.00,VWS V14.01,2013-04-16 13:33:00,
2013-04-16 09:38:00,71.9,69.1,30.14,ENE,78,3.0,8.0,91,0.00,,SCT006,0.00,188.00,VWS V14.01,2013-04-16 13:38:00,
2013-04-16 09:44:00,72.1,69.3,30.14,NE,40,4.0,8.0,91,0.00,,SCT006,0.00,529.00,VWS V14.01,2013-04-16 13:44:00,
2013-04-16 09:49:00,73.0,69.9,30.14,NNE,28,6.0,9.0,90,0.00,,SCT006,0.00,499.00,VWS V14.01,2013-04-16 13:49:00,
2013-04-16 09:54:00,73.5,69.7,30.14,NE,44,2.0,9.0,88,0.00,,SCT006,0.00,534.00,VWS V14.01,2013-04-16 13:54:00,
2013-04-16 09:59:00,73.7,69.9,30.14,ENE,67,7.0,9.0,88,0.00,,FEW008,0.00,552.00,VWS V14.01,2013-04-16 13:59:00,
2013-04-16 10:04:00,74.0,69.6,30.14,East,98,5.0,10.0,86,0.00,,FEW008,0.00,547.00,VWS V14.01,2013-04-16 14:04:00,
2013-04-16 10:09:00,74.5,70.0,30.14,ENE,69,3.0,10.0,86,0.00,,FEW008,0.00,566.00,VWS V14.01,2013-04-16 14:09:00,
2013-04-16 10:14:00,75.0,70.2,30.14,ENE,71,4.0,10.0,85,0.00,,FEW008,0.00,582.00,VWS V14.01,2013-04-16 14:14:00,
2013-04-16 10:19:00,75.8,71.0,30.14,NNE,28,6.0,10.0,85,0.00,,FEW008,0.00,584.00,VWS V14.01,2013-04-16 14:19:00,
2013-04-16 10:24:00,76.1,70.6,30.14,East,94,7.0,10.0,83,0.00,,FEW008,0.00,608.00,VWS V14.01,2013-04-16 14:24:00,
2013-04-16 10:29:00,76.3,70.8,30.14,East,80,5.0,10.0,83,0.00,,FEW008,0.00,622.00,VWS V14.01,2013-04-16 14:29:00,
2013-04-16 10:34:00,76.8,70.9,30.15,NE,54,5.0,7.0,82,0.00,,FEW008,0.00,643.00,VWS V14.01,2013-04-16 14:34:00,
2013-04-16 10:39:00,77.2,70.9,30.15,East,90,5.0,8.0,81,0.00,,FEW008,0.00,659.00,VWS V14.01,2013-04-16 14:39:00,
2013-04-16 10:44:00,77.7,71.4,30.15,ENE,73,7.0,8.0,81,0.00,,FEW008,0.00,677.00,VWS V14.01,2013-04-16 14:44:00,
2013-04-16 10:49:00,77.7,71.4,30.15,NNE,32,6.0,9.0,81,0.00,,FEW008,0.00,251.00,VWS V14.01,2013-04-16 14:49:00,
2013-04-16 10:54:00,79.0,71.9,30.15,SE,126,4.0,9.0,79,0.00,,FEW008,0.00,744.00,VWS V14.01,2013-04-16 14:54:00,
2013-04-16 10:59:00,79.0,71.6,30.15,ESE,113,9.0,10.0,78,0.00,,CLR,0.00,726.00,VWS V14.01,2013-04-16 14:59:00,
2013-04-16 11:04:00,79.2,71.4,30.15,ENE,63,2.0,9.0,77,0.00,,CLR,0.00,737.00,VWS V14.01,2013-04-16 15:04:00,
2013-04-16 11:09:00,79.4,71.2,30.15,ENE,63,7.0,10.0,76,0.00,,CLR,0.00,756.00,VWS V14.01,2013-04-16 15:09:00,
2013-04-16 11:14:00,79.5,71.3,30.15,East,101,8.0,11.0,76,0.00,,CLR,0.00,752.00,VWS V14.01,2013-04-16 15:14:00,
2013-04-16 11:19:00,79.8,71.6,30.15,ESE,103,5.0,11.0,76,0.00,,CLR,0.00,773.00,VWS V14.01,2013-04-16 15:19:00,
2013-04-16 11:24:00,79.9,71.7,30.15,ENE,70,2.0,12.0,76,0.00,,CLR,0.00,768.00,VWS V14.01,2013-04-16 15:24:00,
2013-04-16 11:29:00,79.9,70.9,30.15,NNE,28,3.0,12.0,74,0.00,,CLR,0.00,779.00,VWS V14.01,2013-04-16 15:29:00,
2013-04-16 11:34:00,80.9,71.8,30.15,NE,43,7.0,11.0,74,0.00,,CLR,0.00,786.00,VWS V14.01,2013-04-16 15:34:00,
2013-04-16 11:39:00,80.9,71.0,30.15,ENE,69,2.0,11.0,72,0.00,,CLR,0.00,793.00,VWS V14.01,2013-04-16 15:39:00,
2013-04-16 11:44:00,81.1,71.2,30.15,ENE,63,4.0,13.0,72,0.00,,CLR,0.00,802.00,VWS V14.01,2013-04-16 15:44:00,
2013-04-16 11:49:00,81.3,71.8,30.15,ENE,71,2.0,13.0,73,0.00,,CLR,0.00,814.00,VWS V14.01,2013-04-16 15:49:00,
2013-04-16 11:54:00,81.6,72.1,30.15,NNE,32,4.0,13.0,73,0.00,,CLR,0.00,819.00,VWS V14.01,2013-04-16 15:54:00,
2013-04-16 11:59:00,82.0,71.7,30.14,ESE,104,9.0,13.0,71,0.00,,CLR,0.00,840.00,VWS V14.01,2013-04-16 15:59:00,
2013-04-16 12:04:00,82.8,71.6,30.14,NE,45,4.0,9.0,69,0.00,,CLR,0.00,844.00,VWS V14.01,2013-04-16 16:04:00,
2013-04-16 12:09:00,83.1,70.6,30.14,ENE,74,4.0,10.0,66,0.00,,CLR,0.00,874.00,VWS V14.01,2013-04-16 16:09:00,
2013-04-16 12:14:00,83.4,71.7,30.14,East,83,7.0,10.0,68,0.00,,CLR,0.00,886.00,VWS V14.01,2013-04-16 16:14:00,
2013-04-16 12:19:00,83.4,71.7,30.14,ESE,113,11.0,13.0,68,0.00,,CLR,0.00,947.00,VWS V14.01,2013-04-16 16:19:00,
2013-04-16 12:24:00,83.3,71.2,30.14,ESE,105,4.0,13.0,67,0.00,,CLR,0.00,993.00,VWS V14.01,2013-04-16 16:24:00,
2013-04-16 12:29:00,83.7,70.2,30.13,NNE,12,6.0,13.0,64,0.00,,CLR,0.00,265.00,VWS V14.01,2013-04-16 16:29:00,
2013-04-16 12:34:00,84.6,71.6,30.13,ENE,63,7.0,11.0,65,0.00,,CLR,0.00,889.00,VWS V14.01,2013-04-16 16:34:00,
2013-04-16 12:39:00,84.0,71.9,30.13,NNE,31,5.0,11.0,67,0.00,,CLR,0.00,1013.00,VWS V14.01,2013-04-16 16:39:00,
2013-04-16 12:44:00,83.3,69.9,30.13,NE,51,4.0,11.0,64,0.00,,CLR,0.00,206.00,VWS V14.01,2013-04-16 16:44:00,
2013-04-16 12:49:00,82.4,69.0,30.13,NE,39,1.0,11.0,64,0.00,,CLR,0.00,290.00,VWS V14.01,2013-04-16 16:49:00,
2013-04-16 12:54:00,84.8,69.9,30.12,NE,50,4.0,11.0,61,0.00,,CLR,0.00,902.00,VWS V14.01,2013-04-16 16:54:00,
2013-04-16 12:59:00,85.1,70.2,30.12,North,11,3.0,11.0,61,0.00,,SCT036,0.00,482.00,VWS V14.01,2013-04-16 16:59:00,
2013-04-16 13:04:00,85.5,71.9,30.12,ESE,103,5.0,7.0,64,0.00,,SCT036,0.00,1044.00,VWS V14.01,2013-04-16 17:04:00,
2013-04-16 13:09:00,85.5,71.5,30.12,ENE,69,9.0,9.0,63,0.00,,SCT036,0.00,1100.00,VWS V14.01,2013-04-16 17:09:00,
2013-04-16 13:14:00,84.7,70.2,30.11,ESE,111,5.0,13.0,62,0.00,,SCT036,0.00,343.00,VWS V14.01,2013-04-16 17:14:00,
2013-04-16 13:19:00,85.4,70.4,30.11,ENE,61,4.0,13.0,61,0.00,,SCT036,0.00,1044.00,VWS V14.01,2013-04-16 17:19:00,
2013-04-16 13:24:00,84.0,70.5,30.11,NNE,19,6.0,13.0,64,0.00,,SCT036,0.00,223.00,VWS V14.01,2013-04-16 17:24:00,
2013-04-16 13:29:00,83.9,70.4,30.11,East,85,8.0,13.0,64,0.00,,SCT036,0.00,1048.00,VWS V14.01,2013-04-16 17:29:00,
2013-04-16 13:34:00,85.5,71.0,30.11,NE,55,6.0,9.0,62,0.00,,SCT036,0.00,1063.00,VWS V14.01,2013-04-16 17:34:00,
2013-04-16 13:39:00,85.2,71.2,30.11,ENE,63,7.0,10.0,63,0.00,,SCT036,0.00,506.00,VWS V14.01,2013-04-16 17:39:00,
2013-04-16 13:44:00,85.6,71.6,30.11,ESE,106,11.0,12.0,63,0.00,,SCT036,0.00,1025.00,VWS V14.01,2013-04-16 17:44:00,
2013-04-16 13:49:00,86.6,71.6,30.11,SE,140,10.0,15.0,61,0.00,,SCT036,0.00,1027.00,VWS V14.01,2013-04-16 17:49:00,
2013-04-16 13:54:00,85.2,70.2,30.10,SE,124,5.0,15.0,61,0.00,,SCT036,0.00,348.00,VWS V14.01,2013-04-16 17:54:00,
2013-04-16 13:59:00,84.6,70.2,30.11,East,80,3.0,15.0,62,0.00,,BKN040,0.00,287.00,VWS V14.01,2013-04-16 17:59:00,
2013-04-16 14:04:00,85.2,70.7,30.10,East,101,0.0,8.0,62,0.00,,BKN040,0.00,886.00,VWS V14.01,2013-04-16 18:04:00,
2013-04-16 14:09:00,86.3,70.3,30.10,SSE,158,6.0,8.0,59,0.00,,BKN040,0.00,886.00,VWS V14.01,2013-04-16 18:09:00,
2013-04-16 14:14:00,85.5,70.0,30.10,East,81,5.0,11.0,60,0.00,,BKN040,0.00,357.00,VWS V14.01,2013-04-16 18:14:00,
2013-04-16 14:20:00,85.6,71.6,30.10,East,99,5.0,11.0,63,0.00,,BKN040,0.00,997.00,VWS V14.01,2013-04-16 18:20:00,
2013-04-16 14:25:00,86.0,70.0,30.10,East,83,3.0,11.0,59,0.00,,BKN040,0.00,255.00,VWS V14.01,2013-04-16 18:25:00,
2013-04-16 14:30:00,85.0,70.1,30.10,NNE,26,4.0,11.0,61,0.00,,BKN040,0.00,244.00,VWS V14.01,2013-04-16 18:30:00,
2013-04-16 14:35:00,84.8,69.9,30.10,East,96,8.0,13.0,61,0.00,,BKN040,0.00,302.00,VWS V14.01,2013-04-16 18:35:00,
2013-04-16 14:40:00,85.2,70.7,30.10,East,86,1.0,13.0,62,0.00,,BKN040,0.00,1021.00,VWS V14.01,2013-04-16 18:40:00,
2013-04-16 14:45:00,85.9,69.9,30.10,ENE,74,1.0,13.0,59,0.00,,BKN040,0.00,397.00,VWS V14.01,2013-04-16 18:45:00,
2013-04-16 14:50:00,86.3,70.8,30.09,East,94,3.0,13.0,60,0.00,,BKN040,0.00,972.00,VWS V14.01,2013-04-16 18:50:00,
2013-04-16 14:55:00,87.0,70.9,30.09,NE,55,7.0,13.0,59,0.00,,BKN040,0.00,983.00,VWS V14.01,2013-04-16 18:55:00,
2013-04-16 15:00:00,86.8,69.8,30.09,East,94,2.0,13.0,57,0.00,,BKN040,0.00,327.00,VWS V14.01,2013-04-16 19:00:00,
2013-04-16 15:05:00,86.2,69.7,30.09,NE,38,6.0,10.0,58,0.00,,SCT050,0.00,218.00,VWS V14.01,2013-04-16 19:05:00,
2013-04-16 15:10:00,86.1,70.1,30.09,ENE,70,8.0,10.0,59,0.00,,SCT050,0.00,195.00,VWS V14.01,2013-04-16 19:10:00,
2013-04-16 15:15:00,85.1,69.7,30.09,NE,51,2.0,11.0,60,0.00,,SCT050,0.00,218.00,VWS V14.01,2013-04-16 19:15:00,
2013-04-16 15:20:00,85.5,70.5,30.08,East,85,7.0,11.0,61,0.00,,SCT050,0.00,218.00,VWS V14.01,2013-04-16 19:20:00,
2013-04-16 15:25:00,86.3,70.8,30.08,ENE,78,3.0,12.0,60,0.00,,SCT050,0.00,812.00,VWS V14.01,2013-04-16 19:25:00,
2013-04-16 15:30:00,86.6,70.1,30.08,ENE,74,5.0,12.0,58,0.00,,SCT050,0.00,413.00,VWS V14.01,2013-04-16 19:30:00,
2013-04-16 15:35:00,86.4,69.9,30.08,NNE,32,8.0,10.0,58,0.00,,SCT050,0.00,292.00,VWS V14.01,2013-04-16 19:35:00,
2013-04-16 15:40:00,87.0,70.4,30.08,ENE,58,5.0,11.0,58,0.00,,SCT050,0.00,260.00,VWS V14.01,2013-04-16 19:40:00,
2013-04-16 15:45:00,86.5,69.5,30.08,ENE,67,7.0,11.0,57,0.00,,SCT050,0.00,216.00,VWS V14.01,2013-04-16 19:45:00,
2013-04-16 15:50:00,85.8,69.3,30.08,NNE,29,5.0,11.0,58,0.00,,SCT050,0.00,772.00,VWS V14.01,2013-04-16 19:50:00,
2013-04-16 15:55:00,87.1,69.5,30.08,NE,36,9.0,14.0,56,0.00,,SCT050,0.00,756.00,VWS V14.01,2013-04-16 19:55:00,
2013-04-16 16:00:00,88.0,69.8,30.07,NNE,33,6.0,14.0,55,0.00,,SCT055,0.00,788.00,VWS V14.01,2013-04-16 20:00:00,
2013-04-16 16:05:00,87.5,69.4,30.07,East,90,8.0,14.0,55,0.00,,SCT055,0.00,179.00,VWS V14.01,2013-04-16 20:05:00,
2013-04-16 16:10:00,86.2,69.7,30.07,East,93,7.0,14.0,58,0.00,,SCT055,0.00,160.00,VWS V14.01,2013-04-16 20:10:00,
2013-04-16 16:15:00,86.5,70.0,30.07,East,80,6.0,14.0,58,0.00,,SCT055,0.00,670.00,VWS V14.01,2013-04-16 20:15:00,
2013-04-16 16:20:00,87.5,70.4,30.07,ENE,59,8.0,14.0,57,0.00,,SCT055,0.00,721.00,VWS V14.01,2013-04-16 20:20:00,
2013-04-16 16:25:00,86.5,69.5,30.07,East,94,9.0,14.0,57,0.00,,SCT055,0.00,176.00,VWS V14.01,2013-04-16 20:25:00,
2013-04-16 16:30:00,86.1,70.1,30.07,East,79,7.0,14.0,59,0.00,,SCT055,0.00,624.00,VWS V14.01,2013-04-16 20:30:00,
2013-04-16 16:35:00,86.2,70.2,30.07,East,93,6.0,10.0,59,0.00,,SCT055,0.00,631.00,VWS V14.01,2013-04-16 20:35:00,
2013-04-16 16:40:00,86.6,70.1,30.07,ESE,117,7.0,10.0,58,0.00,,SCT055,0.00,601.00,VWS V14.01,2013-04-16 20:40:00,
2013-04-16 16:45:00,85.3,69.8,30.07,East,80,8.0,15.0,60,0.00,,SCT055,0.00,155.00,VWS V14.01,2013-04-16 20:45:00,
2013-04-16 16:50:00,85.0,68.6,30.07,NNE,12,7.0,15.0,58,0.00,,SCT055,0.00,181.00,VWS V14.01,2013-04-16 20:50:00,
2013-04-16 16:55:00,86.0,70.5,30.07,East,100,11.0,15.0,60,0.00,,SCT055,0.00,559.00,VWS V14.01,2013-04-16 20:55:00,
2013-04-16 17:00:00,86.0,69.5,30.08,ESE,116,9.0,16.0,58,0.00,,SCT050,0.00,571.00,VWS V14.01,2013-04-16 21:00:00,
2013-04-16 17:05:00,85.3,69.4,30.08,NNE,28,7.0,17.0,59,0.00,,SCT050,0.00,105.00,VWS V14.01,2013-04-16 21:05:00,
2013-04-16 17:10:00,84.8,68.9,30.08,NNE,15,6.0,17.0,59,0.00,,SCT050,0.00,128.00,VWS V14.01,2013-04-16 21:10:00,
2013-04-16 17:15:00,84.5,68.6,30.08,NE,48,4.0,17.0,59,0.00,,SCT050,0.00,121.00,VWS V14.01,2013-04-16 21:15:00,
2013-04-16 17:20:00,84.4,69.5,30.08,ENE,68,5.0,17.0,61,0.00,,SCT050,0.00,192.00,VWS V14.01,2013-04-16 21:20:00,
2013-04-16 17:25:00,85.0,69.6,30.08,ENE,76,7.0,17.0,60,0.00,,SCT050,0.00,172.00,VWS V14.01,2013-04-16 21:25:00,
2013-04-16 17:30:00,85.5,69.6,30.08,East,80,7.0,17.0,59,0.00,,SCT050,0.00,188.00,VWS V14.01,2013-04-16 21:30:00,
2013-04-16 17:35:00,85.0,69.1,30.08,ENE,77,9.0,12.0,59,0.00,,SCT050,0.00,155.00,VWS V14.01,2013-04-16 21:35:00,
2013-04-16 17:40:00,85.1,69.7,30.08,NE,46,6.0,12.0,60,0.00,,SCT050,0.00,264.00,VWS V14.01,2013-04-16 21:40:00,
2013-04-16 17:45:00,84.9,69.5,30.08,ENE,74,14.0,16.0,60,0.00,,SCT050,0.00,445.00,VWS V14.01,2013-04-16 21:45:00,
2013-04-16 17:50:00,84.2,68.3,30.08,NNE,24,9.0,19.0,59,0.00,,SCT050,0.00,153.00,VWS V14.01,2013-04-16 21:50:00,
2013-04-16 17:55:00,83.8,68.4,30.08,NE,47,9.0,19.0,60,0.00,,SCT050,0.00,109.00,VWS V14.01,2013-04-16 21:55:00,
2013-04-16 18:00:00,83.4,68.1,30.09,ENE,72,13.0,19.0,60,0.00,,SCT050,0.00,345.00,VWS V14.01,2013-04-16 22:00:00,
2013-04-16 18:05:00,83.5,68.7,30.09,NE,49,6.0,16.0,61,0.00,,FEW050,0.00,158.00,VWS V14.01,2013-04-16 22:05:00,
2013-04-16 18:10:00,83.8,68.4,30.09,ENE,65,11.0,16.0,60,0.00,,FEW050,0.00,283.00,VWS V14.01,2013-04-16 22:10:00,
2013-04-16 18:15:00,83.7,68.3,30.09,ENE,61,7.0,16.0,60,0.00,,FEW050,0.00,288.00,VWS V14.01,2013-04-16 22:15:00,
2013-04-16 18:20:00,83.8,68.9,30.09,East,79,9.0,16.0,61,0.00,,FEW050,0.00,336.00,VWS V14.01,2013-04-16 22:20:00,
2013-04-16 18:25:00,83.6,68.3,30.09,NE,51,12.0,16.0,60,0.00,,FEW050,0.00,120.00,VWS V14.01,2013-04-16 22:25:00,
2013-04-16 18:30:00,82.9,67.6,30.09,NE,51,12.0,18.0,60,0.00,,FEW050,0.00,95.00,VWS V14.01,2013-04-16 22:30:00,
2013-04-16 18:35:00,82.4,67.6,30.10,NNE,19,7.0,14.0,61,0.00,,FEW050,0.00,169.00,VWS V14.01,2013-04-16 22:35:00,
2013-04-16 18:41:00,82.3,68.0,30.10,NE,49,6.0,14.0,62,0.00,,FEW050,0.00,142.00,VWS V14.01,2013-04-16 22:41:00,
2013-04-16 18:46:00,82.1,67.8,30.10,East,83,7.0,15.0,62,0.00,,FEW050,0.00,167.00,VWS V14.01,2013-04-16 22:46:00,
2013-04-16 18:51:00,81.7,67.4,30.10,ENE,68,7.0,15.0,62,0.00,,FEW050,0.00,69.00,VWS V14.01,2013-04-16 22:51:00,
2013-04-16 18:56:00,81.6,67.3,30.10,East,94,9.0,16.0,62,0.00,,FEW050,0.00,121.00,VWS V14.01,2013-04-16 22:56:00,
2013-04-16 19:01:00,81.3,67.5,30.10,NE,42,8.0,17.0,63,0.00,,CLR,0.00,91.00,VWS V14.01,2013-04-16 23:01:00,
2013-04-16 19:06:00,81.0,67.2,30.10,East,84,10.0,14.0,63,0.00,,CLR,0.00,65.00,VWS V14.01,2013-04-16 23:06:00,
2013-04-16 19:11:00,80.6,67.3,30.10,NE,44,6.0,14.0,64,0.00,,CLR,0.00,70.00,VWS V14.01,2013-04-16 23:11:00,
2013-04-16 19:16:00,80.3,67.5,30.10,North,9,11.0,16.0,65,0.00,,CLR,0.00,56.00,VWS V14.01,2013-04-16 23:16:00,
2013-04-16 19:21:00,80.0,67.2,30.11,NE,36,9.0,16.0,65,0.00,,CLR,0.00,44.00,VWS V14.01,2013-04-16 23:21:00,
2013-04-16 19:26:00,79.7,67.3,30.11,NE,54,3.0,16.0,66,0.00,,CLR,0.00,32.00,VWS V14.01,2013-04-16 23:26:00,
2013-04-16 19:31:00,79.4,67.1,30.11,ENE,71,8.0,16.0,66,0.00,,CLR,0.00,26.00,VWS V14.01,2013-04-16 23:31:00,
2013-04-16 19:36:00,79.1,66.8,30.11,NE,49,3.0,16.0,66,0.00,,CLR,0.00,19.00,VWS V14.01,2013-04-16 23:36:00,
2013-04-16 19:41:00,78.9,66.6,30.11,East,91,15.0,16.0,66,0.00,,CLR,0.00,16.00,VWS V14.01,2013-04-16 23:41:00,
2013-04-16 19:46:00,78.7,66.8,30.11,NNE,26,6.0,17.0,67,0.00,,CLR,0.00,11.00,VWS V14.01,2013-04-16 23:46:00,
2013-04-16 19:51:00,78.5,66.6,30.11,NE,55,4.0,17.0,67,0.00,,CLR,0.00,5.00,VWS V14.01,2013-04-16 23:51:00,
2013-04-16 19:56:00,78.2,66.4,30.11,ENE,73,7.0,17.0,67,0.00,,CLR,0.00,0.00,VWS V14.01,2013-04-16 23:56:00,
2013-04-16 20:01:00,77.9,66.5,30.11,ENE,69,5.0,5.0,68,0.00,,CLR,0.00,0.00,VWS V14.01,2013-04-17 00:01:00,
2013-04-16 20:06:00,77.6,66.2,30.11,East,80,5.0,10.0,68,0.00,,CLR,0.00,0.00,VWS V14.01,2013-04-17 00:06:00,
2013-04-16 20:11:00,77.3,66.3,30.11,ENE,69,5.0,15.0,69,0.00,,CLR,0.00,0.00,VWS V14.01,2013-04-17 00:11:00,
2013-04-16 20:16:00,77.0,66.1,30.11,East,95,9.0,15.0,69,0.00,,CLR,0.00,0.00,VWS V14.01,2013-04-17 00:16:00,
2013-04-16 20:21:00,76.7,66.2,30.12,ENE,76,10.0,15.0,70,0.00,,CLR,0.00,0.00,VWS V14.01,2013-04-17 00:21:00,
2013-04-16 20:26:00,76.6,66.1,30.12,ENE,76,2.0,15.0,70,0.00,,CLR,0.00,0.00,VWS V14.01,2013-04-17 00:26:00,
2013-04-16 20:32:00,76.2,66.1,30.12,ENE,72,4.0,9.0,71,0.00,,CLR,0.00,0.00,VWS V14.01,2013-04-17 00:32:00,
2013-04-16 20:37:00,76.1,66.0,30.12,NE,53,5.0,12.0,71,0.00,,CLR,0.00,0.00,VWS V14.01,2013-04-17 00:37:00,
2013-04-16 20:42:00,75.9,65.8,30.13,ENE,58,5.0,13.0,71,0.00,,CLR,0.00,0.00,VWS V14.01,2013-04-17 00:42:00,
2013-04-16 20:47:00,75.8,65.7,30.13,ENE,77,4.0,13.0,71,0.00,,CLR,0.00,0.00,VWS V14.01,2013-04-17 00:47:00,
2013-04-16 20:52:00,75.7,65.6,30.13,NE,37,6.0,13.0,71,0.00,,CLR,0.00,0.00,VWS V14.01,2013-04-17 00:52:00,
2013-04-16 20:57:00,75.5,65.8,30.13,NE,41,7.0,13.0,72,0.00,,CLR,0.00,0.00,VWS V14.01,2013-04-17 00:57:00,
2013-04-16 21:02:00,75.1,65.9,30.13,NE,55,8.0,8.0,73,0.00,,CLR,0.00,0.00,VWS V14.01,2013-04-17 01:02:00,
2013-04-16 21:07:00,74.9,66.1,30.14,ENE,64,4.0,12.0,74,0.00,,CLR,0.00,0.00,VWS V14.01,2013-04-17 01:07:00,
2013-04-16 21:12:00,74.7,65.9,30.14,ENE,76,9.0,12.0,74,0.00,,CLR,0.00,0.00,VWS V14.01,2013-04-17 01:12:00,
2013-04-16 21:17:00,74.5,66.1,30.14,ENE,63,4.0,12.0,75,0.00,,CLR,0.00,0.00,VWS V14.01,2013-04-17 01:17:00,
2013-04-16 21:22:00,74.3,65.9,30.14,East,80,5.0,13.0,75,0.00,,CLR,0.00,0.00,VWS V14.01,2013-04-17 01:22:00,
2013-04-16 21:27:00,74.2,66.2,30.15,ENE,57,4.0,13.0,76,0.00,,CLR,0.00,0.00,VWS V14.01,2013-04-17 01:27:00,
2013-04-16 21:32:00,74.0,66.0,30.14,NE,40,3.0,5.0,76,0.00,,CLR,0.00,0.00,VWS V14.01,2013-04-17 01:32:00,
2013-04-16 21:37:00,73.7,66.1,30.15,East,82,5.0,7.0,77,0.00,,CLR,0.00,0.00,VWS V14.01,2013-04-17 01:37:00,
2013-04-16 21:42:00,73.4,65.8,30.15,NE,38,5.0,10.0,77,0.00,,CLR,0.00,0.00,VWS V14.01,2013-04-17 01:42:00,
2013-04-16 21:47:00,73.2,65.9,30.15,ENE,78,5.0,10.0,78,0.00,,CLR,0.00,0.00,VWS V14.01,2013-04-17 01:47:00,
2013-04-16 21:52:00,73.0,66.1,30.15,ENE,67,3.0,10.0,79,0.00,,CLR,0.00,0.00,VWS V14.01,2013-04-17 01:52:00,
2013-04-16 21:57:00,72.8,65.9,30.15,ENE,65,4.0,10.0,79,0.00,,CLR,0.00,0.00,VWS V14.01,2013-04-17 01:57:00,
2013-04-16 22:02:00,72.5,65.6,30.15,ENE,57,3.0,5.0,79,0.00,,CLR,0.00,0.00,VWS V14.01,2013-04-17 02:02:00,
2013-04-16 22:07:00,72.4,65.9,30.15,ENE,60,7.0,7.0,80,0.00,,CLR,0.00,0.00,VWS V14.01,2013-04-17 02:07:00,
2013-04-16 22:12:00,72.3,65.8,30.15,ENE,62,2.0,7.0,80,0.00,,CLR,0.00,0.00,VWS V14.01,2013-04-17 02:12:00,
2013-04-16 22:17:00,72.1,65.9,30.15,NE,53,3.0,7.0,81,0.00,,CLR,0.00,0.00,VWS V14.01,2013-04-17 02:17:00,
2013-04-16 22:22:00,71.9,65.8,30.15,ENE,76,1.0,7.0,81,0.00,,CLR,0.00,0.00,VWS V14.01,2013-04-17 02:22:00,
2013-04-16 22:27:00,71.5,65.7,30.15,ENE,76,1.0,7.0,82,0.00,,CLR,0.00,0.00,VWS V14.01,2013-04-17 02:27:00,
2013-04-16 22:32:00,71.2,65.8,30.16,ENE,76,1.0,3.0,83,0.00,,CLR,0.00,0.00,VWS V14.01,2013-04-17 02:32:00,
2013-04-16 22:37:00,71.1,65.7,30.16,ENE,67,1.0,3.0,83,0.00,,CLR,0.00,0.00,VWS V14.01,2013-04-17 02:37:00,
2013-04-16 22:42:00,71.0,65.6,30.15,ENE,67,2.0,3.0,83,0.00,,CLR,0.00,0.00,VWS V14.01,2013-04-17 02:42:00,
2013-04-16 22:47:00,70.9,65.8,30.15,ENE,65,1.0,3.0,84,0.00,,CLR,0.00,0.00,VWS V14.01,2013-04-17 02:47:00,
2013-04-16 22:53:00,70.5,65.4,30.15,NE,38,3.0,3.0,84,0.00,,CLR,0.00,0.00,VWS V14.01,2013-04-17 02:53:00,
2013-04-16 22:58:00,70.4,65.7,30.15,NE,40,2.0,4.0,85,0.00,,CLR,0.00,0.00,VWS V14.01,2013-04-17 02:58:00,
2013-04-16 23:03:00,70.3,65.6,30.15,ENE,59,2.0,4.0,85,0.00,,CLR,0.00,0.00,VWS V14.01,2013-04-17 03:03:00,
2013-04-16 23:08:00,70.2,65.8,30.15,ENE,76,3.0,5.0,86,0.00,,CLR,0.00,0.00,VWS V14.01,2013-04-17 03:08:00,
2013-04-16 23:13:00,70.3,65.9,30.15,ENE,60,3.0,6.0,86,0.00,,CLR,0.00,0.00,VWS V14.01,2013-04-17 03:13:00,
2013-04-16 23:18:00,70.3,65.9,30.15,NNE,32,4.0,6.0,86,0.00,,CLR,0.00,0.00,VWS V14.01,2013-04-17 03:18:00,
2013-04-16 23:23:00,70.3,66.2,30.15,NE,49,1.0,6.0,87,0.00,,CLR,0.00,0.00,VWS V14.01,2013-04-17 03:23:00,
2013-04-16 23:28:00,70.1,66.1,30.15,ENE,63,1.0,6.0,87,0.00,,CLR,0.00,0.00,VWS V14.01,2013-04-17 03:28:00,
2013-04-16 23:33:00,69.9,65.9,30.15,ENE,63,1.0,3.0,87,0.00,,CLR,0.00,0.00,VWS V14.01,2013-04-17 03:33:00,
2013-04-16 23:38:00,69.6,65.9,30.15,ENE,59,0.0,3.0,88,0.00,,CLR,0.00,0.00,VWS V14.01,2013-04-17 03:38:00,
2013-04-16 23:43:00,69.4,65.7,30.15,ENE,59,1.0,3.0,88,0.00,,CLR,0.00,0.00,VWS V14.01,2013-04-17 03:43:00,
2013-04-16 23:48:00,69.2,65.5,30.15,ENE,59,1.0,3.0,88,0.00,,CLR,0.00,0.00,VWS V14.01,2013-04-17 03:48:00,
2013-04-16 23:53:00,69.1,65.7,30.15,ENE,63,1.0,3.0,89,0.00,,CLR,0.00,0.00,VWS V14.01,2013-04-17 03:53:00,
2013-04-16 23:58:00,68.8,65.4,30.15,ENE,63,0.0,3.0,89,0.00,,CLR,0.00,0.00,VWS V14.01,2013-04-17 03:58:00,